Location: Go�ngahuizen
(53.0821°N, 5.8849°E)
Time: 02:24:17
(UTC+00:00)

Cosmos 2221 - Pass Details

Date: 09 April 2020
Orbit: 592 x 616 km, 82.5° (Epoch: 03 June)

Event Time Altitude Azimuth Distance (km) Brightness Sun altitude
Exits shadow 21:46:36 40° 55° (NE) 918 3.4 -24.5°
Drops below altitude 10° 21:49:49 10° 21° (NNE) 1,982 5.6 -24.7°
Sets 21:52:06 0° 16° (NNE) 2,888 6.6 -24.9°
